Погода в Бугульме

Погода в Бугульме : погода сейчас, прогноз погоды и архив. Всё, что Вы хотите узнать о погоде в Бугульме!

Хотите узнать прогноз погоды в Бугульме? Тогда Вам сюда: Погода в Бугульме

Поиск расширенной информации на нашем сайте:

Другие новости

Новости СМИ2

Главная страница сайта

Новости сайта

03.07.2017

Напоминаем, что на нашем специализированном сайте Метеоцентр.Азия вы можете получить высокодетализированные автоматические прогнозы погоды по пунктам России, СНГ и мира в авиационном формате (включающие направление и скорость ветра, видимость, явления погоды, количество и форму облачности, нижнюю и верхнюю границу облачности).


Погода в Бугульме - сегодня

Время (UTC), дата Ветер
(°,м/с) 
Видим.   Явления Облачность Т
(°С)
Тd
(°С)
f(%) Тe
(°С)
Pmin
(гПа)
dP
(гПа)
Po
(мм)
O2
(г/м3)
Тmin Tmax R s Состояние
почвы
00 18.11.17 230 (ЮЗ) 10 км    10/6 800 м средняя 
[Sc|Ac und]
-1.7 -3.4 88 -4  1022.5  0.6  738  300           
03 18.11.17 230 (ЮЗ) 10 км    10/6 800 м средняя 
[Sc|Ac und]
-1.4 -2.7 91 -4  1022.2  -0.3  738  299  -1.8      равномерный
сухой снег
100% 
06 18.11.17 220 (ЮЗ) 20000 м    10/8 750 м кучево-дожд., верхняя 
[Cb calv|Ci fib]
-0.7 -3 84 -3  1021.7  -0.3  738  298           
09 18.11.17 230 (ЮЗ) 7-12{12}  20000 м    10/8 450 м средняя 
[Sc|Ac und]
-0.2 -3.2 80 -4  1021.5  0.1  738  298           
12 18.11.17 240 (ЮЗ) 5{12}  20000 м    10/8 540 м средняя 
[Sc|Ac und]
-0.6 -3.5 81 -4  1021.9  0.3  738  298           
15 18.11.17 240 (ЮЗ) 10 км    10/6 1200 м средняя, верхняя 
[Sc|Ac trans|Ci fib]
-1.1 -3.5 84 -4  1022.8  0.8  739  299    -0.1       
18 18.11.17 220 (ЮЗ) 10 км    10/10 300 м 
[St]
-0.9 -2.9 86 -4  1023.8  0.9  739  299           
21 18.11.17 230 (ЮЗ) 10 км    10/10 480 м 
[Sc]
-0.8 -2.8 86 -3  1025.1  1.3  740  299           
00 19.11.17 210 (ЮЗ) 10 км    10/8 270 м средняя 
[St|Ac und]
-0.7 -2.2 90 -4  1025.4  0.3  740  299           
03 19.11.17 200 (Ю) 5{10}  10 км    10/10 240 м 
[St]
-1 -2.1 92 -4  1025.5  740  300  -1.1      равномерный
сухой снег
100% 
06 19.11.17 200 (Ю) 20000 м  {снег}  10/10 270 м 
[St]
-0.5 -1.8 91 -4  1026.2  0.7  741  299           
09 19.11.17 200 (Ю) 5{11}  20000 м    10/10 450 м 
[Sc]
+0.1 -2.3 84 -3  1026.6  0.5  741  299           
12 19.11.17 180 (Ю) 20000 м    10/10 570 м 
[Sc]
-0.2 -3.1 81 -3  1026.2  -0.4  741  299           
15 19.11.17 160 (Ю) 10 км    4/4 1000 м 
[Sc]
-1.8 -3.7 87 -4  1025.7  -0.8  740  301    +0.2  0.0     
18 19.11.17 170 (Ю) 10 км    10/4 300 м средняя, верхняя 
[Sc|Ac trans|Ci fib]
-0.6 -2.7 86 -4  1024.1  -1.3  740  299           
21 19.11.17 180 (Ю) 10 км    10/6 270 м средняя, верхняя 
[St|Ac trans|Ci fib]
-0.2 -2.2 86 -3  1023.7  -0.3  739  298           
00 20.11.17 180 (Ю) 6{10}  10 км  слаб. снег  10/8 270 м средняя 
[St|Ac und]
-0.1 -1.8 88 -4  1022.8  -0.9  739  298           
03 20.11.17 180 (Ю) 4{10}  10 км  {снег}  10/8 1300 м средняя 
[Sc|Ac und]
+0.1 -0.9 93 -2  1022.3  -0.4  738  297  -1.8    0.0  равномерный
мокрый или
старый снег
100% 
06 20.11.17 150 (ЮВ) 20000 м  {снег}  10/10 270 м кучево-дожд. 
[Cb calv]
+0.5 -0.9 90 -2  1022  -0.2  738  297           
09 20.11.17 170 (Ю) 20000 м  в посл. час ливневой дождь  10/8 1000 м кучево-дожд., средняя 
[Cb calv|Ac und]
+0.7 -0.9 89 -2  1021.8  -0.2  738  297           
12 20.11.17 180 (Ю) 5{12}  20000 м  {ливн. осадки}  10/8 630 м кучево-дожд., средняя 
[Cb calv|Ac und]
+1.4 -1.3 82 -1  1021.7  -0.1  738  296           
15 20.11.17 180 (Ю) 10 км    10/8 720 м кучево-дожд., средняя 
[Cb calv|Ac und]
+1.9 -1.4 79 1021.7  0.1  738  295    +1.9     
18 20.11.17 170 (Ю) 10 км    10/8 750 м средняя 
[Sc|Ac und]
+1.7 -1.4 80 1021.6  -0.2  738  296           
21 20.11.17 160 (Ю) 10 км    10/0 средняя 
[Ac und]
+1.1 -2.3 78 1020.9  -0.7  737  296           
00 21.11.17 140 (ЮВ) 10 км    4/0 верхняя 
[Ci fib]
-0.8 -4.2 78 -3  1019.9  -1.2  736  298           
Время (UTC), дата Ветер
(°,м/с) 
Видим.   Явления Облачность Т
(°С)
Тd
(°С)
f(%) Тe
(°С)
Pmin
(гПа)
dP
(гПа)
Po
(мм)
O2
(г/м3)
Тmin Tmax R s Состояние
почвы

Для получения пояснительной информации подведите курсор к названию столбца.

ПОГОДА в Бугульме - архив

Всё, что Вы хотите узнать о погоде в Бугульме - удобно и подробно!

Выберите нужную дату (начиная с 1 января 2015* года) и нажмите кнопку "Найти".
Будут отображены архивные сводки погоды по пункту Бугульма, начиная с указанной даты.


Отображать данные в формате CSV (для использования в таблицах Excel)


Внимание! Наш архив погоды предназначен исключительно для личного некоммерческого использования в познавательных целях. Если Вам необходимы официальные справки о состоянии погоды (для производственных, юридических, коммерческих и т.п. целей), обращайтесь в органы Росгидромета.

*Примечание: данная дата относится к архиву по метеостанциям СССР (Россия, СНГ, Балтия).
Архив по метеостанциям Зарубежной Европы и Азии (кроме Китая) хранится 10 дней, по другим регионам земного шара (Китай, Африка, Америка, Австралия, Океания) - 1 день.

Бугульма - район местоположения метеостанции


Название, широта, долгота, высота метеостанции:
Бугульма 54.6°ш. 52.8°д. 304 м над ур. моря [Российская Федерация]

Дополнительная информация

В oтличие oт бoльшинства пoгoдных сайтoв мы публикуем пoдрoбную метеoинфoрмацию в детальнoм прoфессиoнальнoм фoрмате.

Характеристики температуры и влажнoсти вoздуха измеряются на высoте 2 м в тени вдали oт зданий и деревьев.
Скoрoсть ветра измеряется на высoте 10 м (на урoвне рoста челoвека скoрoсть ветра ниже в 1.5-2 раза). Если метеoстанция нахoдится в гoрoде или в лесу, тo скoрoсть ветра занижена на 2-4 м/с пo сравнению с oткрытым местoм. Скoрoсть ветра над акватoриями крупных рек и oзёр, а также на вершинах хoлмoв на 2-5 м/с выше, чем в oбычных услoвиях.
Атмoсфернoе давление в разных тoчках местнoсти мoжет значительнo oтличаться oт давления на метеoстанции, в зависимoсти oт услoвий рельефа (при пoдъёме на 10 м давление пoнижается примернo на 1 мм рт.ст.).